SNUGLITE 2
1 52899U 22065F   26170.83258690  .00000699  00000-0  14148-3 0  9990
2 52899  98.2206 315.6583 0007838  25.3713 334.7872 14.64351649211382
UmKA 1 (RS40S)
1 57172U 23091G   26170.85733329  .00004983  00000-0  22835-3 0  9990
2 57172  97.5046 229.5444 0014324 109.3771 250.9014 15.20843546164412
CubeBel-2 (EU11S)
1 57175U 23091K   26170.86674250  .00011284  00000-0  39995-3 0  9998
2 57175  97.5046 234.1078 0011286 106.7059 253.5420 15.29206882164712
RS-38S
1 57189U 23091Z   26170.81850955  .00014098  00000-0  40266-3 0  9995
2 57189  97.5087 240.3566 0008105  69.9278 290.2837 15.36095446165094
SONATE-2
1 59112U 24043Q   26170.38513632  .00035474  00000-0  45828-3 0  9991
2 59112  97.5537 320.9158 0007143 188.0523 172.0619 15.58855561128237
GRBBeta
1 60237U 24128C   26170.54292137  .00002191  00000-0  15906-3 0  9991
2 60237  61.9881 208.0011 0040353 135.1213 225.3155 15.06650427106620
Curium One
1 60242U 24128H   26170.55006776  .00005069  00000-0  29687-3 0  9998
2 60242  61.9767 197.4059 0039538 131.2598 229.1915 15.12534401106815
ROBUSTA-3A
1 60243U 24128J   26170.38384092  .00004256  00000-0  25697-3 0  9994
2 60243  61.9845 200.4756 0041136 128.3668 232.1135 15.11694010106757
CatSat
1 60246U 24125J   26170.57918614  .00052457  00000-0  66739-3 0  9996
2 60246  97.2082  23.1102 0022471 170.9194 189.2474 15.58897637107769
HYPERVIEW-1G (RS66S)
1 61772U 24199AP  26170.72916919  .00128823  00000-0  80552-3 0  9995
2 61772  97.2863  50.5774 0004436 209.3810 150.7207 15.76459253135073
AO-123
1 61781U 24199AY  26170.83653714  .00006293  00000-0  18314-3 0  9991
2 61781  97.2994  39.4830 0012120 303.3998  56.6086 15.35707553134339
JINJUSat 1B
1 63210U 25052A   26170.69073646  .00013525  00000-0  41876-3 0  9998
2 63210  97.3998  67.4488 0005436  85.5087 274.6776 15.33568631 70486
NUSHSAT 1
1 63211U 25052B   26170.66525500  .00017299  00000-0  49430-3 0  9993
2 63211  97.3976  67.9977 0005175  88.4520 271.7316 15.36051533 70529
TEVEL2-4
1 63213U 25052D   26170.65994272  .00015774  00000-0  47105-3 0  9993
2 63213  97.3895  67.0555 0004935  98.3582 261.8220 15.34683062 70491
TEVEL2-5
1 63214U 25052E   26170.68072245  .00014833  00000-0  44561-3 0  9992
2 63214  97.3892  67.0230 0004894  99.9243 260.2552 15.34509052 70491
TEVEL2-6
1 63215U 25052F   26170.69311061  .00014726  00000-0  44292-3 0  9998
2 63215  97.3899  67.0201 0004758 100.3374 259.8406 15.34473954 70491
TEVEL2-1
1 63217U 25052H   26170.65777598  .00014677  00000-0  44898-3 0  9994
2 63217  97.3870  66.6064 0004839 108.6625 251.5144 15.33935464 70478
TEVEL2-3
1 63218U 25052J   26170.65232947  .00014905  00000-0  45510-3 0  9995
2 63218  97.3873  66.6229 0004839 109.1056 251.0711 15.33991826 70478
TEVEL2-2
1 63219U 25052K   26170.65807553  .00014696  00000-0  44945-3 0  9995
2 63219  97.3874  66.6088 0004844 109.6610 250.5156 15.33944539 70476
TEVEL2-9
1 63237U 25052AD  26170.70401007  .00013163  00000-0  42841-3 0  9996
2 63237  97.3933  66.0247 0007998 123.7916 236.4088 15.31960885 70413
TEVEL2-7
1 63238U 25052AE  26170.68007201  .00012773  00000-0  41965-3 0  9994
2 63238  97.3935  65.9159 0008059 124.2734 235.9272 15.31663206 70404
TEVEL2-8
1 63239U 25052AF  26170.68834909  .00012538  00000-0  41221-3 0  9992
2 63239  97.3937  65.9009 0008075 124.5955 235.6049 15.31647647 70407
SPIRONE
1 66657U 25274H   26170.73381406  .00001606  00000-0  15757-3 0  9999
2 66657  97.7480  99.9885 0012428  13.6788 346.4766 14.93552508 30602
K-HERO
1 66660U 25274L   26170.73769810  .00001628  00000-0  15799-3 0  9992
2 66660  97.7486 100.1552 0014392  16.7711 343.3982 14.93969599 30619
SNUGLITE-III DURI
1 66661U 25274M   26170.72540343  .00001073  00000-0  10582-3 0  9999
2 66661  97.7484 100.1638 0015055  17.4132 342.7601 14.94007870 30612
SAKHACUBE-CHOLBON
1 67290U 25313AU  26170.45696629  .00007736  00000-0  31324-3 0  9990
2 67290  97.3931 245.4637 0008608 357.2855   2.8334 15.24922033 26320
RS95S (QMR-KWT-2)
1 67291U 25313AV  26170.70536872  .00011199  00000-0  43324-3 0  9993
2 67291  97.3925 245.8896 0007987 353.2594   6.8536 15.26346044 26377
Ten-Koh2
1 68261U 25241B   26170.57332374  .00004570  00000-0  20013-3 0  9992
2 68261  51.6701 308.2737 0005822 148.7075 211.4251 15.23927187 15270
JACK-002
1 68417U 26067B   26170.33473549  .00005090  00000-0  24357-3 0  9999
2 68417  97.4570 128.8987 0000104 158.9108 201.2131 15.19415762 12273
DISCO 2
1 68431U 26067R   26170.35635513  .00007217  00000-0  34701-3 0  9995
2 68431  97.4604 128.9084 0002586  39.9277 320.2147 15.19101786 12274
HADES-SA (SpinnyONE)
1 68446U 26067AG  26170.32968578  .00015238  00000-0  72719-3 0  9991
2 68446  97.4409 128.5939 0009373  76.5960 283.6319 15.19120746 12253
PARUS-6U1
1 68456U 26067AS  26170.82598963  .00004979  00000-0  25130-3 0  9999
2 68456  97.4554 129.1487 0007325  64.9234 295.2760 15.17540003 12338
SAL-E
1 68458U 26067AU  26170.35951197  .00006955  00000-0  34719-3 0  9990
2 68458  97.4481 128.6242 0007861  73.6446 286.5652 15.17782405 12268
FSI-SAT 2
1 68792U 26088A   26170.34433732  .00003525  00000-0  23982-3 0  9993
2 68792  97.5081 319.5492 0016060  99.9877 260.3164 15.06852778  8615
OrigamiSat 2
1 68795U 26088D   26170.35079979  .00010496  00000-0  66938-3 0  9999
2 68795  97.5081 319.6980 0016196  74.3270 285.9745 15.08780628  8620
ARICA 2
1 68796U 26088E   26170.35052643  .00003637  00000-0  23686-3 0  9991
2 68796  97.5072 319.6863 0017030  73.5351 286.7748 15.08444194  8627
WASEDA-SAT-ZERO-II
1 68797U 26088F   26170.34593023  .00005043  00000-0  32485-3 0  9993
2 68797  97.5068 319.6913 0016822  73.4186 286.8888 15.08665392  8623
MANGARO-II-Piscus
1 68798U 26088G   26170.86674025  .00002792  00000-0  18071-3 0  9996
2 68798  97.5078 320.2303 0020528  74.0284 286.3204 15.08802150  8701
IO-86
1 40931U          25360.30710720  .00000000  00000-0  12800-3 0    00
2 40931   6.0006 332.5373 0012733 338.8432   8.1437 14.79075515    01
LILIUM-4                
1 71922C 26067AC  26089.50133053 -.00014632  00000+0 -74472-3 0    04
2 71922  97.4497  49.1617 0004341   5.9603 355.7042 15.16896692    16
